User: anonymous   Login
Location: New Canada
(47.1017°N, 68.5042°W)
Time: 00:27:16
(UTC+00:00)
Language:

KKS-1 - Orbit

View from above orbital plane
View from above orbital plane
View from above satellite
View from above satellite

Ground track
Ground track

The orbit data is extracted from the following two-line orbital elements,

1 33499U 09002H   24109.59879641  .00004361  00000-0  60548-3 0  9994
2 33499  98.1441  10.5553 0007823 332.1727  27.9064 14.78413640819319
Epoch (UTC): 18 April 2024 14:22:16
Eccentricity: 0.0007823
inclination: 98.1441°
perigee height: 629 km
apogee height: 640 km
right ascension of ascending node: 10.5553°
argument of perigee: 332.1727°
revolutions per day: 14.78413640
mean anomaly at epoch: 27.9064°
orbit number at epoch: 81931

The dashed part of the orbit path shows where the satellite is in the earth's shadow,  

DLR